Simultaneous Nadir Overpasses (SNOs) Predictions

Prediction of SNOs between AQUA and NPP Satellite Orbit:

Table of predicted SNOs for the next 14.0 days since TLE Epoch: 5/21/2022
Index Date (AQUA) Time (AQUA) Lat,Lon (AQUA) SZA (AQUA ) Date (NPP) Time (NPP) Lat,Lon (NPP) SZA (NPP ) Distance(km) Time Diff (sec)
1 05/22/2022 08:59:59 -77.66, 110.76 105.11 05/22/2022 08:59:13 -77.67, 110.83 105.09 1.73 46
2 05/22/2022 09:49:12 78.20, -79.12 74.19 05/22/2022 09:49:44 78.20, -79.13 74.17 0.21 32
3 05/25/2022 00:27:16 75.71, 52.21 76.76 05/25/2022 00:26:02 75.79, 51.92 76.83 11.87 74
4 05/25/2022 01:15:55 -77.97,-131.85 105.99 05/25/2022 01:15:58 -77.97,-131.87 105.99 0.78 3
5 05/27/2022 16:42:35 77.75, 175.50 73.87 05/27/2022 16:42:10 77.75, 175.47 73.89 0.88 25
6 05/27/2022 17:31:47 -78.41, -13.72 107.01 05/27/2022 17:32:39 -78.42, -13.65 107.06 1.77 52
7 05/30/2022 08:09:11 -77.71, 123.68 106.47 05/30/2022 08:08:18 -77.71, 123.77 106.45 2.11 53
8 05/30/2022 08:58:25 78.19, -66.43 72.90 05/30/2022 08:58:50 78.20, -66.43 72.87 0.11 25
9 06/01/2022 23:40:16 63.16, 46.06 88.74 06/01/2022 23:39:04 63.41, 44.32 89.09 91.81 72
10 06/02/2022 00:25:02 -78.11,-118.46 107.35 06/02/2022 00:25:00 -78.12,-118.38 107.36 1.81 2



Historial Predications of SNOs between AQUA and NPP
